Weather History for Grand Forks AFB, ND

Change the Weather History Date:

Monday, November 5, 2012

  Actual Average Record
Temperature  
Mean Temperature 32 °F -  
Max Temperature 40 °F 38 °F 66 °F (2001)
Min Temperature 24 °F 22 °F 5 °F (2003)
Degree Days  
Heating Degree Days 34    
Moisture  
Dew Point 30 °F    
Average Humidity 92    
Maximum Humidity 100    
Minimum Humidity 81    
Precipitation  
Precipitation 0.25 in - - ()
Sea Level Pressure  
Sea Level Pressure 30.01 in    
Wind  
Wind Speed 7 mph (SSW)    
Max Wind Speed 22 mph    
Max Gust Speed 28 mph    
Visibility 7 miles    
Events Fog , Rain    
Averages and records for this station are not official NWS values.
T = Trace of Precipitation, MM = Missing Value Source: NWS Daily Summary

Daily Weather History Graph

Daily Weather History Graph

Search for Another Location

Airport:

Trip Planner

Search our weather history database for the weather conditions in past years. The results will help you decide how hot, cold, wet, or windy it might be!

Date:

Astronomy

Nov. 05, 2012 Rise Set
Actual Time 7:21 AM CST 5:04 PM CST
Civil Twilight 6:48 AM CST 5:37 PM CST
Nautical Twilight 6:11 AM CST 6:14 PM CST
Astronomical Twilight 5:35 AM CST 6:50 PM CST
Moon 10:43 PM CST (11/5) 12:42 PM CST (11/5)
Length of Visible Light 10h 48m
Length of Day
9h 42m
Waning Gibbous, 62% of the Moon is Illuminated
Nov 5
Waning Gibbous
Nov 6
Last Quarter
Nov 13
New
Nov 20
First Quarter
Nov 28
Full

Hourly Weather History & Observations

Time (CST) Temp. Windchill Dew Point Humidity Pressure Visibility Wind Dir Wind Speed Gust Speed Precip Events Conditions
12:55 AM 31.1 °F - 29.7 °F 94% 30.26 in 8.0 mi Calm Calm - N/A   Overcast
1:51 AM 32.0 °F - 30.2 °F 93% 30.25 in 8.0 mi Calm Calm - N/A   Overcast
2:55 AM 30.7 °F 27.3 °F 29.5 °F 95% 30.26 in 7.0 mi WNW 3.5 mph - N/A   Overcast
3:55 AM 30.7 °F - 29.3 °F 94% 30.25 in 8.0 mi Calm Calm - N/A   Overcast
4:55 AM 29.1 °F - 27.7 °F 94% 30.24 in 7.0 mi Calm Calm - N/A   Mostly Cloudy
5:15 AM 26.6 °F - 26.6 °F 100% 30.24 in 5.0 mi Calm Calm - N/A   Partly Cloudy
5:25 AM 26.6 °F - 24.8 °F 93% 30.24 in 2.5 mi Calm Calm - N/A   Partly Cloudy
5:28 AM 26.6 °F - 24.8 °F 93% 30.23 in 1.8 mi Calm Calm - N/A   Partly Cloudy
5:33 AM 26.6 °F - 24.8 °F 93% 30.23 in 1.5 mi Calm Calm - N/A   Partly Cloudy
5:36 AM 26.6 °F - 24.8 °F 93% 30.23 in 2.0 mi Calm Calm - N/A   Partly Cloudy
5:39 AM 24.8 °F - 24.8 °F 100% 30.23 in 1.2 mi Calm Calm - N/A   Scattered Clouds
5:40 AM 24.8 °F - 24.8 °F 100% 30.23 in 1.0 mi Calm Calm - N/A   Mist
5:42 AM 24.8 °F - 24.8 °F 100% 30.23 in 0.8 mi Calm Calm - N/A   Mist
5:43 AM 24.8 °F - 24.8 °F 100% 30.23 in 0.8 mi Calm Calm - N/A   Mist
5:47 AM 24.8 °F - 24.8 °F 100% 30.23 in 0.5 mi Calm Calm - N/A Fog Light Freezing Fog
5:48 AM 24.8 °F - 24.8 °F 100% 30.23 in 0.2 mi Calm Calm - N/A Fog Light Freezing Fog
5:55 AM 25.0 °F - 24.1 °F 96% 30.23 in 0.2 mi Calm Calm - N/A Fog Light Freezing Fog
6:09 AM 24.8 °F - 23.0 °F 93% 30.23 in 0.5 mi Calm Calm - N/A Fog Light Freezing Fog
6:13 AM 24.8 °F - 23.0 °F 93% 30.23 in 0.8 mi Calm Calm - N/A   Overcast
6:15 AM 24.8 °F 20.5 °F 24.8 °F 100% 30.23 in 1.0 mi WSW 3.5 mph - N/A   Overcast
6:18 AM 24.8 °F 19.1 °F 24.8 °F 100% 30.23 in 2.0 mi WSW 4.6 mph - N/A   Overcast
6:20 AM 24.8 °F 19.1 °F 24.8 °F 100% 30.23 in 3.0 mi WSW 4.6 mph - N/A   Overcast
6:24 AM 24.8 °F 20.5 °F 24.8 °F 100% 30.22 in 4.0 mi WSW 3.5 mph - N/A   Overcast
6:49 AM 26.6 °F 22.6 °F 24.8 °F 93% 30.21 in 9.0 mi West 3.5 mph - N/A   Overcast
6:55 AM 25.9 °F 20.3 °F 24.4 °F 94% 30.21 in 9.0 mi West 4.6 mph - N/A   Overcast
7:55 AM 24.6 °F - 23.2 °F 94% 30.21 in 10.0 mi Calm Calm - N/A   Overcast
8:55 AM 26.2 °F 22.1 °F 24.3 °F 92% 30.21 in 10.0 mi West 3.5 mph - N/A   Overcast
9:55 AM 30.6 °F 24.7 °F 27.3 °F 88% 30.19 in 9.0 mi SSW 5.8 mph - N/A   Partly Cloudy
10:55 AM 32.5 °F 24.2 °F 28.4 °F 85% 30.17 in 10.0 mi South 10.4 mph - N/A   Clear
11:55 AM 35.4 °F 27.8 °F 30.0 °F 81% 30.13 in 10.0 mi South 10.4 mph - 0.01 in   Clear
12:55 PM 36.5 °F 28.2 °F 31.1 °F 81% 30.07 in 10.0 mi South 12.7 mph - 0.04 in   Clear
1:12 PM 35.6 °F 26.2 °F 32.0 °F 87% 30.07 in 10.0 mi South 15.0 mph - N/A   Light Drizzle
1:21 PM 35.6 °F 26.6 °F 32.0 °F 87% 30.06 in 8.0 mi South 13.8 mph - N/A   Clear
1:55 PM 36.5 °F 27.8 °F 31.6 °F 83% 30.05 in 10.0 mi South 13.8 mph - 0.05 in   Clear
2:13 PM 35.6 °F 25.9 °F 32.0 °F 87% 30.04 in 10.0 mi SSW 16.1 mph - N/A   Partly Cloudy
2:22 PM 35.6 °F 25.9 °F 32.0 °F 87% 30.03 in 10.0 mi SSW 16.1 mph 24.2 mph N/A   Mostly Cloudy
2:32 PM 35.6 °F 26.2 °F 32.0 °F 87% 30.03 in 9.0 mi SSW 15.0 mph - N/A   Mostly Cloudy
2:55 PM 35.8 °F 26.9 °F 31.8 °F 86% 30.02 in 10.0 mi SSW 13.8 mph 23.0 mph 0.03 in   Overcast
3:46 PM 35.6 °F 26.6 °F 32.0 °F 87% 29.99 in 9.0 mi South 13.8 mph - N/A   Overcast
3:55 PM 35.6 °F 26.2 °F 32.4 °F 88% 29.98 in 9.0 mi South 15.0 mph - 0.01 in   Overcast
4:09 PM 35.6 °F 26.2 °F 32.0 °F 87% 29.96 in 10.0 mi South 15.0 mph - N/A   Overcast
4:55 PM 35.6 °F 25.9 °F 32.4 °F 88% 29.94 in 10.0 mi South 16.1 mph - 0.01 in   Overcast
5:55 PM 36.3 °F 26.1 °F 32.9 °F 87% 29.89 in 10.0 mi South 18.4 mph 25.3 mph 0.01 in   Overcast
6:13 PM 35.6 °F 25.2 °F 33.8 °F 93% 29.87 in 10.0 mi South 18.4 mph 24.2 mph N/A   Overcast
6:55 PM 36.9 °F 27.5 °F 33.4 °F 87% 29.87 in 10.0 mi South 16.1 mph - N/A   Overcast
6:56 PM 37.4 °F 27.5 °F 33.8 °F 87% 29.86 in 10.0 mi South 18.4 mph - N/A Rain Light Rain
7:07 PM 37.4 °F 27.8 °F 33.8 °F 87% 29.86 in 8.0 mi South 17.3 mph - N/A Rain Light Rain
7:13 PM 35.6 °F 25.5 °F 33.8 °F 93% 29.85 in 8.0 mi South 17.3 mph - N/A Rain Light Rain
7:18 PM 35.6 °F 25.2 °F 33.8 °F 93% 29.83 in 8.0 mi South 18.4 mph - N/A Rain Light Rain
7:27 PM 35.6 °F 25.5 °F 33.8 °F 93% 29.84 in 9.0 mi South 17.3 mph - N/A Rain Light Rain
7:38 PM 35.6 °F 25.5 °F 33.8 °F 93% 29.83 in 9.0 mi South 17.3 mph - N/A Rain Light Rain
7:48 PM 37.4 °F 28.2 °F 33.8 °F 87% 29.84 in 8.0 mi South 16.1 mph - N/A Rain Light Rain
7:55 PM 36.5 °F 26.7 °F 34.3 °F 92% 29.84 in 7.0 mi South 17.3 mph - 0.02 in Rain Light Rain
8:04 PM 35.6 °F 26.2 °F 33.8 °F 93% 29.82 in 5.0 mi South 15.0 mph - N/A   Overcast
8:11 PM 35.6 °F 25.2 °F 33.8 °F 93% 29.82 in 6.0 mi South 18.4 mph 21.9 mph N/A   Overcast
8:14 PM 35.6 °F 25.2 °F 33.8 °F 93% 29.82 in 6.0 mi South 18.4 mph 21.9 mph N/A   Overcast
8:36 PM 35.6 °F 25.2 °F 35.6 °F 100% 29.80 in 8.0 mi South 18.4 mph - N/A Rain Light Rain
8:39 PM 35.6 °F 24.8 °F 35.6 °F 100% 29.79 in 9.0 mi South 19.6 mph - N/A   Light Drizzle
8:42 PM 35.6 °F 25.2 °F 35.6 °F 100% 29.79 in 9.0 mi South 18.4 mph - N/A   Overcast
8:55 PM 36.5 °F 26.7 °F 34.7 °F 93% 29.78 in 10.0 mi South 17.3 mph 25.3 mph 0.07 in   Overcast
9:04 PM 37.4 °F 26.9 °F 33.8 °F 87% 29.78 in 8.0 mi South 20.7 mph 25.3 mph N/A   Overcast
9:06 PM 37.4 °F 27.2 °F 33.8 °F 87% 29.77 in 7.0 mi South 19.6 mph 25.3 mph N/A Rain Light Rain
9:08 PM 37.4 °F 26.6 °F 33.8 °F 87% 29.77 in 6.0 mi South 21.9 mph 26.5 mph N/A Rain Light Rain
9:31 PM 37.4 °F 26.9 °F 35.6 °F 93% 29.76 in 7.0 mi South 20.7 mph - N/A   Overcast
9:55 PM 36.9 °F 27.5 °F 35.2 °F 94% 29.76 in 8.0 mi South 16.1 mph - 0.00 in   Overcast
9:59 PM 37.4 °F 28.2 °F 35.6 °F 93% 29.76 in 9.0 mi South 16.1 mph - N/A   Overcast
10:03 PM 37.4 °F 26.9 °F 35.6 °F 93% 29.75 in 9.0 mi South 20.7 mph 26.5 mph N/A   Overcast
10:51 PM 37.4 °F 28.9 °F 35.6 °F 93% 29.72 in 10.0 mi SSW 13.8 mph - N/A   Overcast
10:53 PM 37.4 °F 28.9 °F 35.6 °F 93% 29.72 in 10.0 mi SSW 13.8 mph - N/A   Overcast
10:59 PM 37.4 °F 29.3 °F 35.6 °F 93% 29.73 in 10.0 mi SW 12.7 mph - N/A   Overcast
11:22 PM 39.2 °F 31.6 °F 35.6 °F 87% 29.73 in 10.0 mi WSW 12.7 mph - N/A   Overcast
11:55 PM 40.5 °F 31.2 °F 36.7 °F 86% 29.74 in 10.0 mi WNW 19.6 mph 27.6 mph N/A   Overcast